Regional Weather Roundup
Issued by NWS

Home | Current Version | Previous Version | Text Only | Print | Product List | Glossary On
Versions: 1 2 3 4 5 6 7 8 9 10 11 12 13 14 15 16 17 18 19 20 21 22 23 24 25 26 27 28 29 30 31 32 33 34 35 36 37 38 39 40 41 42 43 44 45 46 47 48 49 50
000
ASUS43 KTOP 230759
RWRKS

WEATHER ROUNDUP FOR KANSAS
NATIONAL WEATHER SERVICE GOODLAND KS
300 AM CDT SAT SEP 23 2017

NOTE:  "FAIR" INDICATES FEW OR NO CLOUDS BELOW 12,000 FEET WITH NO
SIGNIFICANT WEATHER AND/OR OBSTRUCTIONS TO VISIBILITY.

KSZ001>006-013>018-027>032-041>047-230900-
NORTHWEST KANSAS

CITY           SKY/WX    TMP DP  RH WIND       PRES   REMARKS
GOODLAND       CLEAR     71  62  73 S18G29    29.84R
HAYS           PTCLDY    74  65  73 S12       29.87S
HILL CITY      PTCLDY    76  66  71 S16G25    29.84S
RUSSELL        CLEAR     74  65  73 S21G28    29.86S
$$

KSZ061>065-074>080-084>089-230900-
SOUTHWEST KANSAS

CITY           SKY/WX    TMP DP  RH WIND       PRES   REMARKS
DODGE CITY     CLEAR     73  64  73 S17G28    29.89S
ELKHART          N/A     66  63  90 S10         N/A
GARDEN CITY    CLEAR     71  64  78 S13       29.88R
GREAT BEND     PTCLDY    75  66  73 S18G25    29.88S
LIBERAL        CLEAR     71  64  78 S12       29.89R
$$

KSZ066>073-081>083-090>101-230900-
SOUTHEAST KANSAS

CITY           SKY/WX    TMP DP  RH WIND       PRES   REMARKS
CHANUTE        CLEAR     71  67  87 SE6       29.96S
COFFEYVILLE    CLEAR     70  66  87 SE7       29.94F
HUTCHINSON     PTCLDY    75  67  76 S13       29.91S
MEDICINE LODGE   N/A     74  65  73 S9        29.91R
NEWTON         CLEAR     73  66  78 S10       29.94R
PARSONS        CLEAR     73  66  78 SE5       29.96F
WICHITA INTL   PTCLDY    74  67  78 SE10      29.92S
WICHITA JABRA  CLEAR     73  68  84 S10       29.93S
WINFIELD       CLEAR     73  67  81 S10       29.94F
$$

KSZ007>012-019>026-033>040-048>060-102>105-230900-
NORTHEAST KANSAS

CITY           SKY/WX    TMP DP  RH WIND       PRES   REMARKS
CONCORDIA      PTCLDY    72  68  87 S10       29.89S
EMPORIA        PTCLDY    70  65  84 S6        29.94S
LAWRENCE       CLEAR     70  68  93 E5        29.95S
MANHATTAN      PTCLDY    76  68  76 S7        29.92R
OLATHE IND     CLEAR     70  66  87 SE7       29.97S
OLATHE EXE     CLEAR     70  68  93 SE3       29.97S
SALINA         PTCLDY    78  66  66 S15       29.90S
TOPEKA BILLARD PTCLDY    72  69  90 SE6       29.94S
TOPEKA FORBES  CLOUDY    71  68  90 SE6       29.95R
$$




USA.gov is the U.S. government's official web portal to all federal, state and local government web resources and services.